User: anonymous
Location: Unspecified
(0.0000°N, 0.0000°E)
Time: 13:54:00
(UTC+02:00)
Language:

Iridium 15 - Orbit

View from above orbital plane
View from above orbital plane
View from above satellite
View from above satellite

Ground track
Ground track

The orbit data is extracted from the following two-line orbital elements,

1 24869U 97034A   14203.22107902  .00000259  00000-0  85508-4 0  9924
2 24869 086.3975 105.3289 0002233 099.2418 055.0552 14.34215009891841
Epoch (UTC): 22 July 2014 05:18:21
Eccentricity: 0.0002233
inclination: 86.3975°
perigee height: 776 km
apogee height: 779 km
right ascension of ascending node: 105.3289°
argument of perigee: 99.2418°
revolutions per day: 14.34215009
mean anomaly at epoch: 55.0552°
orbit number at epoch: 89184

The dashed part of the orbit path shows where the satellite is in the earth's shadow,  

DLR